[Iaude] MPEC V41: 2023 VY [a=1.80,e=0.48,i=4.5,H=25.2]
    mpec at marsden.cfa.harvard.edu 
    mpec at marsden.cfa.harvard.edu
       
    Sat Nov  4 23:42:59 EDT 2023
    
    
  
M.P.E.C. 2023-V41                              Issued 2023 November 5, 03:41 UT
     The Minor Planet Electronic Circulars contain information on unusual
         minor planets, routine data on comets and natural satellites,
         and occasional editorial announcements.  They are published
    on behalf of Division F of the International Astronomical Union by the
          Minor Planet Center, Smithsonian Astrophysical Observatory,
                          Cambridge, MA 02138, U.S.A.
			  
             Prepared using the Tamkin Foundation Computer Network
                              MPC at CFA.HARVARD.EDU
            URL https://www.minorplanetcenter.net/    ISSN 1523-6714
                                    2023 VY                                     
Observations:
     K23V00Y*1C2023 11 03.27356300 31 55.124+30 33 49.75         20.91GVEV041G96
     K23V00Y 1C2023 11 03.27877100 31 58.742+30 34 01.56         20.39GVEV041G96
     K23V00Y 1C2023 11 03.28398300 32 02.432+30 34 13.66         20.48GVEV041G96
     K23V00Y  C2023 11 03.31913500 32 26.847+30 35 24.98         20.6 GVEV041H01
     K23V00Y  C2023 11 03.32255900 32 29.263+30 35 32.30         20.9 GVEV041H01
     K23V00Y  C2023 11 03.33325100 32 36.837+30 35 54.91         20.9 GVEV041H01
     K23V00Y  C2023 11 03.34489600 32 45.103+30 36 19.51         20.5 GVEV041H01
     K23V00Y KC2023 11 03.40151600 33 25.600+30 38 20.26         20.71GVEV041I52
     K23V00Y KC2023 11 03.40290200 33 26.543+30 38 23.24         21.01GVEV041I52
     K23V00Y KC2023 11 03.40428700 33 27.540+30 38 26.20         20.43GVEV041I52
     K23V00Y KC2023 11 03.40566700 33 28.512+30 38 28.86         20.78GVEV041I52
     K23V00Y KC2023 11 04.08696100 41 40.650+31 02 27.56         21.10GVEV041I52
     K23V00Y KC2023 11 04.08822000 41 41.428+31 02 29.76         20.82GVEV041I52
     K23V00Y KC2023 11 04.08947000 41 42.248+31 02 32.50         20.75GVEV041I52
     K23V00Y KC2023 11 04.09070600 41 43.019+31 02 34.84         20.96GVEV041I52
     K23V00Y KC2023 11 05.13057100 52 44.447+31 31 26.26         21.17GVEV041I52
     K23V00Y KC2023 11 05.13265000 52 45.628+31 31 29.64         21.39GVEV041I52
     K23V00Y KC2023 11 05.13472100 52 46.816+31 31 33.46         20.90GVEV041I52
     K23V00Y KC2023 11 05.13678500 52 47.935+31 31 36.08         20.98GVEV041I52
Observer details:
G96 Mt. Lemmon Survey.  Observer J. B. Fazekas.  Measurers E. C. Beshore, D.
    Fay, J. B. Fazekas, D. C. Fuls, A. R. Gibbs, A. D. Grauer, H. Groeller, J.
    K. Hogan, R. A. Kowalski, S. M. Larson, G. J. Leonard, D. Rankin, R. L.
    Seaman, F. C. Shelly, K. W. Wierzchos.  1.5-m reflector + 10K CCD.
H01 Magdalena Ridge Observatory, Socorro.  Observers W. H. Ryan, E. V. Ryan.
    Measurer W. H. Ryan.  2.4-m f/8.9 Ritchey-Chretien + CCD.
I52 Steward Observatory, Mt. Lemmon Station.  Observers D. Rankin, R. A.
    Kowalski.  Measurers E. C. Beshore, D. Fay, J. B. Fazekas, D. C. Fuls, A.
    R. Gibbs, A. D. Grauer, H. Groeller, J. K. Hogan, R. A. Kowalski, S. M.
    Larson, G. J. Leonard, D. Rankin, R. L. Seaman, F. C. Shelly, K. W.
    Wierzchos.  1.0-m prime focus + CCD.
Orbital elements:
2023 VY                                                  Earth MOID = 0.0113 AU
Epoch 2023 Sept. 13.0 TT = JDT 2460200.5                Veres                   
M 355.92107              (2000.0)            P               Q                  
n   0.40779217     Peri.  332.66806     +0.98016625     +0.19701514             
a   1.8009851      Node    16.01275     -0.16466770     +0.86981903             
e   0.4814510      Incl.    4.45523     -0.11026639     +0.45232719             
P   2.42           H   25.21          G   0.15           U   8                  
Residuals in seconds of arc
231103 G96  0.1+  0.2-    231103 I52  0.6+  0.2-    231104 I52  0.3-  0.4-
231103 G96  0.4-  0.1-    231103 I52  0.1-  0.0     231105 I52  0.1-  0.1-
231103 G96  0.1+  0.4+    231103 I52  0.0   0.2+    231105 I52  0.0   0.0
231103 H01  0.0   0.2-    231103 I52  0.2-  0.1+    231105 I52  0.3+  0.5+
231103 H01  0.0   0.2-    231104 I52  0.4+  0.3+    231105 I52  0.3-  0.1-
231103 H01  0.1+  0.2-    231104 I52  0.1-  0.2-
231103 H01  0.3+  0.0     231104 I52  0.1+  0.1-
Ephemeris:
2023 VY                  a,e,i = 1.80, 0.48, 4                   q = 0.9339
Date    TT    R. A. (2000) Decl.     Delta      r    Elong.  Phase     V
2023 10 06    16 42 45.3 -28 31 21   0.1205  0.9475    61.0   112.6    24.8
...
2023 10 21    19 34 37.6 -07 58 29   0.04805 0.9945    87.2    90.0    21.8
...
2023 10 29    23 01 41.1 +23 18 15   0.05267 1.0309   134.2    43.7    20.6
...
2023 11 04    00 40 35.7 +30 59 56   0.08062 1.0622   149.6    28.2    21.1
2023 11 05    00 51 21.3 +31 28 23   0.08614 1.0678   150.9    26.9    21.2
2023 11 06    01 00 57.5 +31 50 01   0.09183 1.0734   151.9    25.8    21.4
...
2023 11 12    01 41 32.8 +32 38 38   0.1285  1.1084   155.6    21.6    22.0
...
2023 11 20    02 11 27.4 +32 20 31   0.1830  1.1584   156.6    19.8    22.8
...
2023 12 05    02 42 21.2 +31 03 02   0.3011  1.2589   151.7    21.8    24.2
M. P. C. Staff               (C) Copyright 2023 MPC           M.P.E.C. 2023-V41
    
    
More information about the Iaude
mailing list